sat.trackr.live / text

‹ back to catalog

STARLINK-3682

NORAD 52140 · 2022-029BE

PAYLOAD ACTIVE UNKNOWN

§ Identity

Operator
Country
US
Launch date
2022-03-19
Launch site
AFETR
Launch vehicle
Mass (kg)
RCS (m²)

Purposes: comms

External: N2YO · Heavens-Above · Gunter

§ Orbital elements

Epoch: 2026-05-25T02:10:11.589888Z

Period
95.44 min
Inclination
53.2146°
Eccentricity
0.0001235
Mean motion
15.08834753 rev/d
Perigee alt
538.9 km
Apogee alt
540.6 km
Semi-major
6,917.9 km
B*
3.4745e-5
RAAN
86.1406°
Arg perigee
87.7601°
Mean anomaly
272.3533°
Rev number
23,247

§ Raw data

STARLINK-36821 52140U 22029BE  26145.09041192  .00000265  00000+0  34745-4 0  99902 52140  53.2146  86.1406 0001235  87.7601 272.3533 15.08834753232477

JSON: /api/v1/satellites/52140 · /tle

For live sub-satellite position, see the globe view (requires WebGL).

§ Visibility from observer

Set your observer location to see the next 7 days of passes ≥ 10°. The values pass through the URL so the page stays shareable.

No JS? Fill the form by hand. The geolocation button needs JavaScript.